SCOUT X-4 R/B, 1739

Orbit data source: Space-Track

SCOUT X-4 R/B, 1739 is space debris in LEO originally from a launch on Fri, 19 Nov 1965 UTC launched from the Wallops Island (WLPIS). Debris objects in space refer to the collection of defunct objects orbiting the Earth. Examples of debris include non-operational satellites, rocket bodies, and fragments generated from explosions, collisions, or faulty payload assembly.

Loading next visibility...
Identifier
1739, 1965-093B
Orbit
LEO
Country
Flag of USUS
Related business
Manufacturer
ABL
Mission
Spacecraft
Bus & Motor
ALTAIR, Unknown motor
Mass
33 kg wet, 33 kg dry
Launch date (UTC)
1965-11-19 (60 years ago)
Launch vehicle
Unknown
Launch site
Wallops Island (WLPIS)
Object type
Payload
Rocket body
Debris
Shape & HBR
Cyl, 0.8 m
Radar Cross Section
0.687 m², Medium (>0.1 m² and < 1m²)

Expand to show TLE details & history
Last TLE update: 20 hours ago

TLE from 20 hours ago
0 SCOUT X-4 R/B
1 01739U 65093B   25260.09338134  .00000366  00000-0  11845-3 0  9996
2 01739  59.7024  84.3054 0081053  11.2308 349.0521 14.54749481130583
Epoch: 2025-09-17T02:14Z
TLE epoch observation values (Epoch: 2025-09-17T02:14:28.147Z)
Latitude
Longitude
54.41385°
Altitude
655.307 km
Speed
7.56 km/s
True Right ascension
05h 37m 13s
True Declination
0° 00' 00"
Sunlit
Object was in daylight at epoch
Visualization orbit readout
Latitude
Unknown
Longitude
Unknown
Altitude
Unknown
Speed
Unknown
Apparent Right ascension
Unknown
Apparent Declination
Unknown
Sunlit
N/A
Visualization observer readout
Local Sidereal Time
15:12:13
Azimuth
Unknown
Elevation
Unknown
Doppler factor
Unknown
Orbital elements
Apogee altitude
766.895 km
Perigee altitude
652.001 km
Semi-major axis
7,087.585 km
Eccentricity
0.00811
Inclination
59.7024°
RAAN
84.3054°
Arg. of periapsis
11.2308°
True anomaly
348.87393°
Mean anomaly
349.0521°
Eccentric anomaly
348.9632°
Mean motion
3.63744 °/min
Orbital period
98.97 mins
BSTAR
0.00011845
Loading maneuver chart data...
Computing Atmospheric mass density...
Loading historical data...
Loading historical data...
Loading historical data...
Loading historical data...
Loading historical data...
Loading historical data...
Loading historical data...
Other satellites on launch #93 in the year 1965 (1965-11-19 UTC)

Documentation

Showing up to 5 results
|